Precipitable_Water
0.64 0.61 0.59 0.57 0.57 0.56 0.55 0.53 0.51 0.49 0.49 0.49 0.48 0.46 0.45 0.45 0.45 0.44 0.43 0.43 0.41 0.39 0.40 0.40 0.37 0.35 0.34 0.35 0.35 0.30 0.27 0.22 0.16 0.16 0.15 0.18 0.21 0.23 0.25 0.28 0.29 0.31 0.31 0.26 0.23 0.20 0.17 0.17 0.17 0.20 0.21 0.23 0.23 0.22 0.24 0.24 0.24 0.23 0.16 0.14 0.10 0.12 0.10 0.13 0.10 0.11 0.13 0.10 0.12 0.14 0.16 0.15 0.12 0.16 0.17 0.20 0.18 0.18 0.18 0.19 0.21 0.23 0.22 0.23 0.23 0.23 0.22 0.24
0.66 0.62 0.59 0.58 0.56 0.56 0.55 0.54 0.53 0.52 0.51 0.50 0.49 0.48 0.46 0.45 0.46 0.46 0.44 0.43 0.40 0.37 0.37 0.37 0.35 0.34 0.36 0.36 0.35 0.30 0.24 0.20 0.15 0.14 0.14 0.20 0.22 0.24 0.26 0.27 0.28 0.27 0.29 0.21 0.19 0.18 0.16 0.14 0.15 0.16 0.16 0.16 0.22 0.19 0.22 0.20 0.22 0.17 0.14 0.12 0.10 0.11 0.12 0.14 0.13 0.14 0.11 0.10 0.11 0.13 0.16 0.15 0.14 0.16 0.18 0.14 0.14 0.15 0.15 0.16 0.19 0.19 0.21 0.23 0.24 0.22 0.21 0.22
0.66 0.63 0.61 0.59 0.58 0.57 0.56 0.55 0.54 0.53 0.50 0.50 0.49 0.47 0.45 0.43 0.44 0.45 0.44 0.42 0.39 0.36 0.35 0.35 0.35 0.35 0.34 0.33 0.34 0.31 0.26 0.19 0.14 0.12 0.16 0.21 0.22 0.24 0.25 0.26 0.26 0.27 0.24 0.19 0.20 0.18 0.17 0.16 0.17 0.16 0.15 0.14 0.17 0.16 0.18 0.17 0.19 0.17 0.14 0.11 0.11 0.14 0.13 0.14 0.14 0.13 0.13 0.12 0.11 0.12 0.14 0.14 0.15 0.16 0.19 0.14 0.14 0.15 0.13 0.13 0.16 0.16 0.16 0.19 0.23 0.22 0.21 0.21
0.64 0.63 0.63 0.60 0.59 0.58 0.56 0.54 0.53 0.51 0.50 0.49 0.46 0.43 0.42 0.42 0.43 0.45 0.45 0.40 0.35 0.35 0.35 0.34 0.34 0.34 0.33 0.31 0.32 0.30 0.21 0.18 0.12 0.15 0.19 0.22 0.23 0.25 0.25 0.25 0.25 0.26 0.25 0.22 0.22 0.19 0.20 0.19 0.18 0.17 0.15 0.14 0.15 0.16 0.15 0.16 0.15 0.16 0.14 0.11 0.12 0.13 0.11 0.13 0.13 0.14 0.13 0.12 0.12 0.13 0.14 0.14 0.16 0.17 0.16 0.15 0.13 0.13 0.13 0.16 0.14 0.14 0.16 0.19 0.21 0.22 0.21 0.20
0.64 0.62 0.61 0.60 0.59 0.56 0.54 0.52 0.51 0.50 0.49 0.48 0.43 0.41 0.39 0.41 0.43 0.43 0.41 0.38 0.34 0.34 0.34 0.34 0.33 0.33 0.32 0.32 0.28 0.28 0.22 0.14 0.13 0.17 0.21 0.23 0.25 0.25 0.24 0.23 0.24 0.25 0.23 0.23 0.21 0.20 0.19 0.18 0.18 0.16 0.15 0.13 0.14 0.14 0.14 0.16 0.16 0.15 0.12 0.13 0.13 0.13 0.11 0.13 0.13 0.13 0.12 0.14 0.13 0.14 0.12 0.13 0.18 0.18 0.16 0.15 0.11 0.11 0.13 0.15 0.17 0.18 0.19 0.20 0.20 0.21 0.21 0.19
0.63 0.60 0.59 0.59 0.57 0.54 0.53 0.51 0.49 0.48 0.48 0.46 0.40 0.38 0.37 0.38 0.38 0.37 0.36 0.34 0.34 0.34 0.35 0.34 0.33 0.32 0.33 0.31 0.24 0.26 0.21 0.14 0.19 0.18 0.23 0.22 0.24 0.24 0.23 0.24 0.24 0.23 0.22 0.19 0.18 0.18 0.18 0.18 0.17 0.14 0.13 0.12 0.12 0.12 0.14 0.16 0.16 0.11 0.12 0.13 0.13 0.12 0.11 0.13 0.13 0.13 0.14 0.13 0.13 0.12 0.15 0.16 0.15 0.14 0.16 0.16 0.14 0.14 0.18 0.18 0.20 0.20 0.21 0.21 0.22 0.21 0.20 0.19
0.59 0.60 0.58 0.56 0.54 0.53 0.51 0.49 0.48 0.46 0.45 0.43 0.39 0.37 0.36 0.37 0.34 0.36 0.36 0.34 0.33 0.34 0.34 0.35 0.34 0.32 0.31 0.32 0.24 0.18 0.14 0.15 0.20 0.23 0.24 0.24 0.24 0.22 0.23 0.22 0.24 0.21 0.18 0.16 0.17 0.17 0.17 0.16 0.16 0.14 0.13 0.12 0.13 0.12 0.14 0.14 0.15 0.12 0.10 0.12 0.11 0.13 0.11 0.13 0.13 0.14 0.14 0.13 0.13 0.16 0.17 0.14 0.15 0.12 0.17 0.15 0.16 0.18 0.20 0.21 0.21 0.22 0.22 0.22 0.21 0.21 0.20 0.19
0.57 0.60 0.58 0.55 0.53 0.52 0.49 0.47 0.46 0.44 0.41 0.40 0.38 0.36 0.34 0.35 0.35 0.35 0.35 0.33 0.33 0.34 0.35 0.34 0.32 0.31 0.30 0.24 0.19 0.15 0.13 0.12 0.18 0.21 0.22 0.24 0.23 0.22 0.24 0.21 0.22 0.19 0.16 0.16 0.17 0.16 0.16 0.14 0.14 0.15 0.13 0.12 0.13 0.12 0.14 0.12 0.13 0.11 0.10 0.12 0.12 0.12 0.12 0.13 0.13 0.13 0.14 0.14 0.15 0.16 0.14 0.13 0.15 0.15 0.16 0.14 0.16 0.18 0.20 0.21 0.22 0.22 0.22 0.21 0.21 0.21 0.21 0.20
0.57 0.59 0.57 0.55 0.53 0.51 0.48 0.46 0.45 0.43 0.41 0.39 0.37 0.35 0.33 0.34 0.34 0.34 0.35 0.33 0.33 0.33 0.34 0.33 0.30 0.28 0.27 0.22 0.16 0.12 0.11 0.17 0.20 0.22 0.23 0.23 0.22 0.22 0.22 0.19 0.21 0.18 0.17 0.18 0.19 0.17 0.16 0.14 0.15 0.15 0.12 0.12 0.15 0.13 0.14 0.12 0.10 0.12 0.12 0.12 0.12 0.11 0.13 0.13 0.13 0.13 0.14 0.14 0.15 0.14 0.13 0.15 0.16 0.18 0.14 0.14 0.16 0.19 0.20 0.20 0.21 0.22 0.21 0.20 0.20 0.21 0.21 0.21
0.58 0.58 0.55 0.54 0.52 0.48 0.45 0.43 0.42 0.41 0.40 0.38 0.37 0.35 0.33 0.34 0.34 0.35 0.35 0.35 0.33 0.32 0.33 0.31 0.32 0.28 0.24 0.18 0.16 0.11 0.15 0.21 0.22 0.23 0.23 0.23 0.21 0.22 0.22 0.21 0.21 0.21 0.18 0.17 0.18 0.17 0.15 0.15 0.15 0.17 0.16 0.14 0.16 0.13 0.15 0.13 0.11 0.14 0.12 0.12 0.11 0.12 0.12 0.14 0.13 0.13 0.14 0.14 0.15 0.13 0.12 0.13 0.16 0.15 0.10 0.16 0.17 0.19 0.19 0.19 0.20 0.20 0.20 0.20 0.20 0.21 0.22 0.22
0.60 0.56 0.52 0.51 0.48 0.43 0.43 0.42 0.40 0.40 0.38 0.37 0.37 0.37 0.35 0.34 0.32 0.33 0.34 0.34 0.32 0.31 0.31 0.32 0.28 0.27 0.19 0.17 0.13 0.11 0.21 0.21 0.24 0.24 0.23 0.23 0.22 0.21 0.21 0.23 0.24 0.21 0.20 0.18 0.17 0.17 0.16 0.16 0.17 0.17 0.16 0.13 0.16 0.15 0.15 0.14 0.15 0.13 0.13 0.13 0.12 0.13 0.13 0.13 0.14 0.13 0.14 0.13 0.15 0.14 0.13 0.14 0.15 0.15 0.12 0.14 0.17 0.18 0.17 0.18 0.18 0.19 0.20 0.20 0.21 0.21 0.22 0.23
0.55 0.52 0.50 0.48 0.44 0.43 0.42 0.40 0.39 0.38 0.36 0.36 0.36 0.36 0.35 0.33 0.31 0.30 0.30 0.30 0.32 0.30 0.30 0.30 0.28 0.24 0.21 0.16 0.14 0.14 0.22 0.23 0.25 0.25 0.24 0.23 0.22 0.23 0.24 0.24 0.24 0.21 0.20 0.17 0.18 0.19 0.19 0.19 0.18 0.16 0.12 0.19 0.13 0.16 0.15 0.17 0.15 0.14 0.14 0.11 0.12 0.13 0.12 0.13 0.13 0.14 0.15 0.13 0.16 0.16 0.12 0.10 0.12 0.11 0.13 0.16 0.17 0.18 0.17 0.17 0.18 0.18 0.19 0.20 0.21 0.21 0.22 0.22
0.51 0.50 0.48 0.45 0.43 0.43 0.41 0.41 0.40 0.38 0.36 0.34 0.32 0.34 0.36 0.34 0.30 0.29 0.30 0.28 0.31 0.29 0.29 0.28 0.27 0.26 0.19 0.14 0.16 0.21 0.23 0.25 0.25 0.25 0.25 0.25 0.24 0.25 0.24 0.24 0.24 0.24 0.22 0.19 0.19 0.21 0.22 0.21 0.19 0.16 0.18 0.17 0.15 0.13 0.17 0.19 0.15 0.16 0.15 0.13 0.12 0.12 0.12 0.14 0.15 0.15 0.14 0.15 0.16 0.16 0.07 0.08 0.10 0.12 0.14 0.17 0.17 0.18 0.17 0.17 0.18 0.18 0.19 0.20 0.20 0.20 0.21 0.23
0.48 0.46 0.44 0.43 0.43 0.43 0.41 0.40 0.38 0.37 0.36 0.35 0.34 0.34 0.36 0.35 0.30 0.29 0.30 0.30 0.32 0.32 0.31 0.31 0.27 0.22 0.18 0.15 0.19 0.22 0.24 0.26 0.26 0.24 0.24 0.25 0.22 0.21 0.22 0.23 0.24 0.25 0.25 0.22 0.23 0.24 0.22 0.23 0.20 0.18 0.22 0.16 0.14 0.22 0.16 0.16 0.17 0.13 0.14 0.15 0.11 0.10 0.10 0.14 0.14 0.15 0.13 0.16 0.16 0.16 0.09 0.09 0.12 0.13 0.16 0.18 0.18 0.18 0.17 0.17 0.18 0.19 0.19 0.19 0.20 0.20 0.21 0.22
0.46 0.45 0.45 0.45 0.44 0.43 0.40 0.38 0.36 0.35 0.36 0.35 0.34 0.33 0.35 0.34 0.32 0.29 0.31 0.32 0.34 0.36 0.37 0.36 0.30 0.22 0.17 0.16 0.22 0.25 0.28 0.27 0.24 0.23 0.25 0.22 0.20 0.19 0.20 0.22 0.22 0.24 0.24 0.23 0.22 0.23 0.23 0.22 0.20 0.16 0.15 0.20 0.19 0.16 0.13 0.13 0.14 0.14 0.11 0.10 0.12 0.10 0.11 0.13 0.15 0.15 0.12 0.16 0.18 0.16 0.10 0.10 0.12 0.15 0.17 0.18 0.19 0.19 0.17 0.18 0.19 0.19 0.19 0.20 0.20 0.20 0.21 0.21
0.44 0.43 0.44 0.44 0.41 0.39 0.37 0.36 0.34 0.34 0.36 0.37 0.37 0.36 0.35 0.34 0.32 0.30 0.32 0.30 0.31 0.35 0.38 0.33 0.32 0.23 0.17 0.14 0.18 0.27 0.25 0.21 0.21 0.24 0.25 0.25 0.22 0.19 0.21 0.21 0.22 0.21 0.22 0.21 0.23 0.23 0.22 0.21 0.16 0.17 0.16 0.18 0.16 0.13 0.12 0.12 0.12 0.13 0.11 0.09 0.09 0.10 0.11 0.11 0.15 0.16 0.17 0.16 0.17 0.15 0.11 0.12 0.12 0.16 0.17 0.19 0.19 0.19 0.18 0.18 0.19 0.19 0.19 0.20 0.20 0.20 0.21 0.22
0.42 0.43 0.42 0.42 0.40 0.40 0.38 0.36 0.34 0.37 0.40 0.40 0.39 0.39 0.39 0.37 0.33 0.33 0.32 0.31 0.28 0.31 0.28 0.24 0.24 0.24 0.16 0.21 0.24 0.19 0.18 0.21 0.24 0.24 0.24 0.27 0.24 0.22 0.20 0.19 0.18 0.18 0.20 0.20 0.21 0.21 0.21 0.17 0.20 0.18 0.18 0.15 0.15 0.14 0.10 0.09 0.09 0.10 0.12 0.09 0.10 0.09 0.11 0.09 0.15 0.17 0.17 0.16 0.14 0.16 0.13 0.13 0.14 0.16 0.17 0.19 0.19 0.19 0.18 0.18 0.18 0.19 0.20 0.20 0.21 0.21 0.21 0.21
0.40 0.41 0.41 0.39 0.39 0.39 0.39 0.38 0.38 0.38 0.39 0.42 0.42 0.40 0.39 0.40 0.37 0.34 0.30 0.30 0.28 0.25 0.25 0.26 0.22 0.17 0.15 0.20 0.15 0.16 0.21 0.22 0.24 0.25 0.25 0.26 0.26 0.23 0.21 0.20 0.20 0.19 0.18 0.16 0.18 0.15 0.17 0.15 0.17 0.13 0.14 0.14 0.14 0.12 0.09 0.07 0.08 0.08 0.09 0.09 0.10 0.11 0.11 0.10 0.11 0.15 0.16 0.17 0.14 0.15 0.14 0.14 0.15 0.16 0.17 0.19 0.20 0.19 0.18 0.18 0.18 0.18 0.19 0.20 0.21 0.21 0.21 0.21
0.39 0.37 0.36 0.35 0.35 0.39 0.39 0.37 0.36 0.37 0.36 0.38 0.47 0.50 0.48 0.43 0.41 0.35 0.27 0.25 0.21 0.17 0.14 0.17 0.15 0.12 0.11 0.16 0.21 0.22 0.23 0.24 0.26 0.25 0.22 0.22 0.24 0.24 0.23 0.23 0.21 0.18 0.15 0.13 0.14 0.15 0.17 0.15 0.16 0.13 0.11 0.11 0.12 0.12 0.10 0.11 0.11 0.10 0.10 0.10 0.10 0.10 0.10 0.11 0.14 0.16 0.16 0.15 0.14 0.14 0.13 0.14 0.15 0.16 0.17 0.19 0.19 0.18 0.17 0.18 0.18 0.19 0.19 0.20 0.20 0.21 0.21 0.22
0.38 0.34 0.34 0.33 0.34 0.35 0.37 0.39 0.38 0.37 0.35 0.38 0.40 0.39 0.39 0.37 0.28 0.22 0.26 0.25 0.20 0.18 0.18 0.18 0.19 0.19 0.20 0.20 0.21 0.24 0.25 0.24 0.19 0.21 0.23 0.25 0.21 0.20 0.19 0.19 0.18 0.18 0.15 0.12 0.14 0.14 0.16 0.11 0.10 0.10 0.11 0.12 0.13 0.13 0.13 0.13 0.13 0.13 0.12 0.11 0.11 0.11 0.11 0.13 0.14 0.17 0.19 0.15 0.14 0.14 0.15 0.15 0.15 0.16 0.16 0.18 0.18 0.17 0.17 0.17 0.18 0.19 0.19 0.20 0.20 0.21 0.21 0.22
0.37 0.34 0.32 0.34 0.35 0.35 0.37 0.40 0.40 0.39 0.40 0.36 0.33 0.28 0.24 0.24 0.20 0.17 0.20 0.21 0.24 0.24 0.21 0.20 0.20 0.20 0.18 0.20 0.21 0.20 0.16 0.16 0.19 0.19 0.21 0.27 0.22 0.18 0.16 0.16 0.15 0.13 0.14 0.15 0.13 0.17 0.15 0.11 0.10 0.12 0.12 0.13 0.13 0.14 0.14 0.14 0.14 0.12 0.11 0.11 0.10 0.11 0.10 0.13 0.14 0.17 0.20 0.15 0.13 0.16 0.15 0.14 0.15 0.15 0.16 0.18 0.17 0.16 0.17 0.17 0.18 0.19 0.20 0.20 0.21 0.21 0.21 0.22
0.41 0.37 0.34 0.33 0.34 0.33 0.34 0.39 0.41 0.40 0.42 0.35 0.29 0.24 0.25 0.25 0.29 0.28 0.22 0.16 0.20 0.24 0.24 0.22 0.23 0.20 0.22 0.20 0.22 0.22 0.18 0.14 0.15 0.18 0.24 0.25 0.20 0.14 0.16 0.15 0.14 0.11 0.15 0.15 0.15 0.13 0.11 0.10 0.11 0.13 0.15 0.15 0.15 0.15 0.15 0.13 0.12 0.12 0.11 0.11 0.11 0.11 0.13 0.15 0.16 0.18 0.18 0.16 0.13 0.15 0.13 0.14 0.15 0.15 0.17 0.17 0.17 0.18 0.19 0.19 0.19 0.19 0.20 0.20 0.21 0.21 0.22 0.22
0.45 0.41 0.34 0.32 0.32 0.32 0.32 0.36 0.40 0.38 0.37 0.31 0.24 0.25 0.25 0.34 0.40 0.37 0.27 0.19 0.16 0.22 0.21 0.21 0.18 0.17 0.17 0.21 0.22 0.22 0.14 0.13 0.12 0.16 0.19 0.22 0.18 0.16 0.16 0.13 0.13 0.13 0.13 0.14 0.10 0.10 0.09 0.11 0.13 0.16 0.16 0.14 0.14 0.14 0.14 0.13 0.13 0.12 0.12 0.11 0.10 0.13 0.11 0.10 0.15 0.16 0.17 0.15 0.13 0.14 0.13 0.14 0.15 0.16 0.16 0.18 0.18 0.18 0.20 0.20 0.20 0.21 0.20 0.20 0.21 0.22 0.22 0.23
0.47 0.43 0.38 0.32 0.30 0.30 0.31 0.31 0.37 0.33 0.30 0.30 0.27 0.26 0.35 0.42 0.39 0.34 0.23 0.15 0.13 0.18 0.20 0.21 0.19 0.18 0.17 0.16 0.23 0.20 0.15 0.15 0.15 0.14 0.23 0.21 0.16 0.20 0.15 0.14 0.12 0.12 0.11 0.12 0.12 0.11 0.10 0.12 0.16 0.16 0.15 0.14 0.12 0.13 0.13 0.12 0.11 0.13 0.12 0.12 0.11 0.12 0.13 0.12 0.13 0.15 0.16 0.17 0.17 0.15 0.13 0.14 0.14 0.13 0.15 0.17 0.19 0.19 0.19 0.20 0.20 0.21 0.22 0.23 0.24 0.24 0.24 0.24
0.48 0.44 0.40 0.37 0.30 0.30 0.30 0.29 0.25 0.26 0.31 0.28 0.28 0.37 0.41 0.43 0.40 0.33 0.21 0.16 0.15 0.16 0.26 0.23 0.23 0.20 0.21 0.28 0.26 0.17 0.19 0.18 0.18 0.21 0.22 0.21 0.17 0.17 0.15 0.18 0.14 0.11 0.12 0.14 0.13 0.12 0.12 0.15 0.17 0.15 0.14 0.14 0.13 0.12 0.12 0.12 0.11 0.12 0.13 0.13 0.13 0.14 0.13 0.14 0.15 0.14 0.12 0.12 0.15 0.15 0.09 0.09 0.13 0.14 0.15 0.17 0.17 0.17 0.19 0.19 0.19 0.20 0.21 0.23 0.23 0.24 0.25 0.26
0.47 0.45 0.41 0.37 0.34 0.30 0.30 0.22 0.23 0.30 0.25 0.22 0.26 0.40 0.42 0.42 0.45 0.37 0.20 0.11 0.09 0.16 0.21 0.15 0.24 0.16 0.29 0.21 0.22 0.20 0.18 0.13 0.21 0.22 0.24 0.24 0.27 0.18 0.19 0.15 0.15 0.11 0.13 0.13 0.12 0.12 0.12 0.16 0.16 0.14 0.13 0.13 0.13 0.12 0.13 0.14 0.11 0.10 0.12 0.15 0.15 0.14 0.14 0.14 0.14 0.13 0.10 0.09 0.14 0.16 0.11 0.08 0.13 0.13 0.15 0.16 0.16 0.17 0.18 0.19 0.19 0.20 0.21 0.23 0.24 0.24 0.25 0.26
0.45 0.42 0.38 0.38 0.35 0.33 0.21 0.16 0.27 0.28 0.19 0.25 0.34 0.41 0.42 0.39 0.44 0.33 0.15 0.10 0.08 0.15 0.15 0.21 0.19 0.21 0.27 0.24 0.22 0.20 0.10 0.13 0.20 0.23 0.22 0.24 0.19 0.29 0.14 0.14 0.16 0.16 0.16 0.16 0.11 0.09 0.15 0.14 0.15 0.15 0.13 0.13 0.12 0.11 0.14 0.14 0.12 0.11 0.16 0.16 0.16 0.15 0.14 0.14 0.14 0.14 0.12 0.15 0.15 0.16 0.14 0.10 0.09 0.13 0.16 0.16 0.16 0.16 0.18 0.19 0.20 0.21 0.22 0.23 0.24 0.25 0.26 0.27
0.45 0.43 0.38 0.38 0.36 0.33 0.25 0.25 0.24 0.19 0.19 0.31 0.40 0.37 0.38 0.38 0.38 0.31 0.16 0.07 0.06 0.18 0.15 0.18 0.19 0.29 0.24 0.23 0.22 0.16 0.15 0.19 0.12 0.19 0.23 0.24 0.24 0.19 0.16 0.13 0.13 0.13 0.14 0.13 0.08 0.14 0.14 0.13 0.14 0.13 0.13 0.12 0.12 0.14 0.15 0.16 0.13 0.14 0.16 0.17 0.15 0.15 0.15 0.15 0.14 0.14 0.14 0.12 0.10 0.13 0.15 0.11 0.10 0.13 0.16 0.16 0.15 0.16 0.17 0.19 0.20 0.21 0.22 0.23 0.24 0.25 0.26 0.27
0.44 0.44 0.39 0.38 0.39 0.36 0.33 0.26 0.24 0.21 0.32 0.37 0.36 0.34 0.32 0.34 0.27 0.14 0.10 0.07 0.12 0.16 0.29 0.17 0.29 0.23 0.20 0.22 0.17 0.17 0.16 0.19 0.12 0.18 0.21 0.23 0.24 0.19 0.13 0.15 0.16 0.15 0.16 0.14 0.10 0.12 0.15 0.15 0.16 0.15 0.14 0.12 0.15 0.16 0.16 0.16 0.13 0.16 0.18 0.18 0.17 0.17 0.16 0.16 0.14 0.14 0.13 0.11 0.09 0.11 0.13 0.09 0.09 0.13 0.14 0.16 0.15 0.16 0.17 0.19 0.20 0.21 0.22 0.23 0.24 0.26 0.27 0.28
0.44 0.44 0.41 0.39 0.39 0.34 0.29 0.31 0.28 0.34 0.36 0.37 0.34 0.33 0.32 0.24 0.16 0.09 0.06 0.05 0.15 0.10 0.16 0.18 0.17 0.14 0.18 0.14 0.14 0.16 0.14 0.15 0.17 0.18 0.19 0.16 0.18 0.22 0.19 0.23 0.17 0.15 0.14 0.16 0.15 0.15 0.16 0.21 0.22 0.17 0.15 0.16 0.16 0.17 0.18 0.17 0.17 0.19 0.18 0.16 0.15 0.15 0.15 0.15 0.14 0.14 0.12 0.08 0.09 0.12 0.13 0.12 0.08 0.11 0.13 0.14 0.15 0.17 0.18 0.20 0.21 0.22 0.24 0.25 0.26 0.27 0.28 0.29
0.44 0.45 0.41 0.39 0.31 0.32 0.31 0.22 0.27 0.35 0.34 0.35 0.33 0.29 0.24 0.15 0.09 0.07 0.05 0.07 0.13 0.13 0.18 0.17 0.14 0.19 0.14 0.12 0.11 0.15 0.14 0.15 0.15 0.17 0.14 0.17 0.15 0.17 0.17 0.15 0.20 0.15 0.13 0.13 0.13 0.15 0.17 0.18 0.18 0.19 0.21 0.19 0.19 0.17 0.20 0.19 0.19 0.18 0.15 0.14 0.13 0.12 0.14 0.12 0.12 0.13 0.08 0.07 0.10 0.13 0.13 0.13 0.09 0.10 0.15 0.17 0.19 0.20 0.20 0.19 0.21 0.22 0.24 0.25 0.27 0.28 0.29 0.30
0.44 0.45 0.42 0.38 0.39 0.40 0.24 0.20 0.28 0.35 0.33 0.34 0.29 0.18 0.12 0.06 0.09 0.05 0.05 0.16 0.08 0.11 0.11 0.12 0.15 0.14 0.14 0.15 0.12 0.13 0.12 0.13 0.15 0.15 0.13 0.14 0.13 0.13 0.14 0.11 0.13 0.09 0.09 0.11 0.11 0.14 0.12 0.14 0.18 0.19 0.23 0.19 0.17 0.15 0.16 0.18 0.18 0.17 0.15 0.14 0.10 0.09 0.09 0.07 0.09 0.07 0.08 0.07 0.11 0.13 0.14 0.11 0.11 0.13 0.16 0.19 0.19 0.21 0.22 0.22 0.22 0.23 0.24 0.26 0.27 0.28 0.29 0.30
0.46 0.45 0.43 0.41 0.40 0.34 0.33 0.34 0.34 0.32 0.35 0.31 0.20 0.14 0.09 0.06 0.05 0.07 0.07 0.10 0.07 0.12 0.10 0.16 0.13 0.13 0.13 0.12 0.11 0.13 0.16 0.11 0.16 0.15 0.16 0.16 0.14 0.13 0.15 0.15 0.16 0.12 0.08 0.11 0.10 0.10 0.11 0.15 0.16 0.17 0.18 0.21 0.18 0.13 0.13 0.13 0.16 0.15 0.13 0.12 0.10 0.08 0.07 0.05 0.07 0.08 0.08 0.11 0.13 0.13 0.15 0.11 0.13 0.15 0.19 0.18 0.20 0.22 0.23 0.24 0.25 0.25 0.25 0.26 0.27 0.28 0.28 0.29
0.45 0.43 0.38 0.39 0.39 0.39 0.38 0.38 0.35 0.33 0.26 0.21 0.14 0.10 0.07 0.04 0.04 0.10 0.08 0.09 0.09 0.16 0.16 0.13 0.13 0.13 0.12 0.10 0.11 0.14 0.11 0.15 0.14 0.14 0.15 0.13 0.13 0.11 0.13 0.15 0.16 0.13 0.12 0.12 0.09 0.10 0.07 0.08 0.13 0.14 0.12 0.19 0.17 0.15 0.15 0.14 0.14 0.14 0.15 0.14 0.12 0.10 0.09 0.06 0.07 0.06 0.07 0.09 0.11 0.14 0.12 0.10 0.10 0.13 0.19 0.21 0.22 0.23 0.24 0.25 0.26 0.27 0.27 0.27 0.28 0.28 0.28 0.28
0.46 0.43 0.38 0.35 0.36 0.38 0.39 0.39 0.37 0.34 0.25 0.18 0.10 0.06 0.04 0.04 0.05 0.06 0.07 0.09 0.11 0.13 0.12 0.16 0.12 0.11 0.10 0.12 0.14 0.15 0.15 0.11 0.15 0.13 0.13 0.12 0.10 0.11 0.11 0.12 0.15 0.15 0.14 0.10 0.11 0.11 0.09 0.09 0.13 0.17 0.17 0.18 0.16 0.18 0.18 0.16 0.14 0.15 0.16 0.16 0.13 0.12 0.15 0.10 0.11 0.10 0.09 0.09 0.09 0.10 0.10 0.13 0.13 0.18 0.21 0.22 0.23 0.24 0.25 0.26 0.27 0.27 0.27 0.28 0.27 0.26 0.26 0.26
0.45 0.39 0.36 0.30 0.31 0.35 0.39 0.38 0.37 0.31 0.23 0.14 0.08 0.05 0.05 0.06 0.06 0.08 0.09 0.14 0.14 0.11 0.12 0.12 0.12 0.10 0.10 0.11 0.14 0.13 0.18 0.12 0.13 0.12 0.11 0.12 0.12 0.11 0.14 0.14 0.13 0.16 0.12 0.10 0.11 0.09 0.10 0.08 0.14 0.16 0.17 0.16 0.17 0.18 0.17 0.18 0.10 0.13 0.14 0.12 0.13 0.18 0.15 0.12 0.12 0.13 0.12 0.11 0.08 0.12 0.11 0.13 0.16 0.17 0.20 0.22 0.23 0.24 0.25 0.26 0.26 0.26 0.27 0.27 0.26 0.25 0.24 0.24
0.36 0.37 0.28 0.28 0.30 0.36 0.37 0.36 0.33 0.27 0.20 0.13 0.08 0.06 0.08 0.09 0.11 0.11 0.15 0.13 0.14 0.14 0.12 0.09 0.09 0.09 0.09 0.09 0.10 0.12 0.12 0.13 0.12 0.11 0.09 0.12 0.10 0.14 0.13 0.14 0.17 0.16 0.16 0.13 0.11 0.14 0.09 0.09 0.14 0.13 0.12 0.17 0.19 0.19 0.18 0.19 0.18 0.15 0.12 0.14 0.18 0.19 0.17 0.13 0.09 0.10 0.10 0.08 0.09 0.11 0.10 0.11 0.12 0.12 0.20 0.22 0.22 0.23 0.24 0.25 0.26 0.26 0.27 0.26 0.26 0.25 0.24 0.24
0.32 0.28 0.26 0.25 0.29 0.35 0.35 0.33 0.29 0.23 0.18 0.12 0.08 0.08 0.13 0.10 0.15 0.14 0.18 0.17 0.16 0.15 0.11 0.10 0.09 0.12 0.09 0.09 0.09 0.10 0.12 0.09 0.10 0.11 0.09 0.11 0.08 0.16 0.14 0.13 0.17 0.16 0.17 0.19 0.12 0.12 0.13 0.08 0.12 0.14 0.14 0.17 0.19 0.18 0.16 0.18 0.20 0.15 0.14 0.19 0.13 0.11 0.10 0.14 0.12 0.08 0.08 0.07 0.09 0.11 0.12 0.12 0.14 0.15 0.19 0.19 0.20 0.22 0.23 0.25 0.25 0.25 0.26 0.26 0.26 0.26 0.24 0.24
0.28 0.25 0.18 0.23 0.31 0.33 0.32 0.32 0.24 0.20 0.14 0.10 0.09 0.08 0.12 0.12 0.16 0.16 0.18 0.18 0.17 0.13 0.10 0.11 0.09 0.10 0.11 0.09 0.09 0.10 0.11 0.08 0.10 0.09 0.08 0.09 0.07 0.14 0.13 0.15 0.14 0.18 0.18 0.17 0.14 0.14 0.14 0.09 0.09 0.15 0.14 0.16 0.16 0.15 0.10 0.12 0.17 0.18 0.19 0.16 0.18 0.16 0.13 0.12 0.12 0.12 0.12 0.09 0.09 0.10 0.12 0.11 0.16 0.17 0.19 0.20 0.22 0.23 0.23 0.24 0.24 0.25 0.26 0.26 0.26 0.26 0.25 0.24
0.21 0.16 0.16 0.28 0.29 0.32 0.31 0.29 0.20 0.17 0.12 0.08 0.09 0.09 0.15 0.11 0.15 0.18 0.20 0.18 0.13 0.12 0.11 0.10 0.11 0.09 0.10 0.09 0.10 0.08 0.10 0.10 0.09 0.09 0.09 0.10 0.09 0.14 0.13 0.18 0.15 0.16 0.18 0.18 0.14 0.17 0.12 0.13 0.07 0.11 0.15 0.15 0.10 0.13 0.11 0.12 0.12 0.13 0.14 0.14 0.15 0.15 0.17 0.16 0.16 0.14 0.12 0.11 0.11 0.10 0.10 0.13 0.17 0.21 0.21 0.22 0.22 0.23 0.24 0.24 0.25 0.26 0.27 0.27 0.27 0.27 0.25 0.25
0.22 0.15 0.18 0.25 0.26 0.31 0.28 0.21 0.15 0.11 0.09 0.12 0.12 0.11 0.13 0.12 0.15 0.16 0.19 0.21 0.16 0.19 0.12 0.11 0.10 0.09 0.09 0.09 0.09 0.11 0.09 0.09 0.09 0.09 0.09 0.10 0.11 0.09 0.18 0.16 0.18 0.15 0.18 0.16 0.15 0.15 0.12 0.11 0.08 0.10 0.10 0.10 0.11 0.15 0.15 0.14 0.15 0.14 0.14 0.14 0.15 0.14 0.13 0.12 0.11 0.17 0.16 0.14 0.12 0.11 0.10 0.14 0.20 0.23 0.23 0.23 0.23 0.24 0.25 0.25 0.26 0.27 0.28 0.28 0.28 0.27 0.26 0.26
0.14 0.11 0.13 0.24 0.25 0.27 0.19 0.11 0.12 0.14 0.11 0.09 0.09 0.12 0.12 0.20 0.14 0.15 0.16 0.19 0.17 0.13 0.17 0.12 0.12 0.10 0.10 0.09 0.10 0.10 0.10 0.09 0.10 0.09 0.11 0.09 0.12 0.11 0.15 0.21 0.18 0.18 0.14 0.12 0.12 0.17 0.15 0.13 0.11 0.08 0.09 0.10 0.12 0.15 0.17 0.18 0.18 0.17 0.17 0.16 0.18 0.18 0.17 0.15 0.11 0.14 0.16 0.15 0.16 0.15 0.13 0.12 0.20 0.23 0.24 0.24 0.24 0.25 0.26 0.27 0.27 0.28 0.28 0.28 0.26 0.26 0.26 0.25
0.13 0.11 0.17 0.24 0.25 0.21 0.14 0.10 0.13 0.11 0.09 0.13 0.17 0.15 0.17 0.15 0.13 0.15 0.13 0.15 0.12 0.14 0.12 0.11 0.11 0.10 0.11 0.10 0.11 0.11 0.11 0.09 0.10 0.09 0.10 0.11 0.11 0.14 0.18 0.19 0.20 0.17 0.17 0.14 0.15 0.15 0.17 0.11 0.09 0.10 0.11 0.13 0.15 0.17 0.18 0.19 0.19 0.17 0.18 0.20 0.19 0.17 0.18 0.17 0.16 0.17 0.15 0.15 0.14 0.14 0.12 0.14 0.21 0.24 0.24 0.25 0.26 0.27 0.28 0.28 0.28 0.28 0.27 0.26 0.24 0.24 0.24 0.23
0.13 0.13 0.16 0.23 0.24 0.20 0.11 0.07 0.07 0.07 0.09 0.12 0.12 0.11 0.16 0.13 0.12 0.11 0.11 0.12 0.11 0.10 0.10 0.10 0.11 0.14 0.11 0.14 0.12 0.10 0.12 0.08 0.11 0.10 0.10 0.13 0.11 0.19 0.19 0.19 0.20 0.16 0.15 0.14 0.12 0.17 0.11 0.13 0.10 0.08 0.08 0.10 0.11 0.14 0.15 0.18 0.18 0.17 0.17 0.19 0.20 0.20 0.20 0.19 0.19 0.18 0.15 0.15 0.16 0.14 0.11 0.15 0.21 0.24 0.25 0.26 0.26 0.26 0.27 0.28 0.29 0.27 0.26 0.24 0.22 0.22 0.22 0.22
0.13 0.15 0.16 0.17 0.19 0.16 0.10 0.10 0.08 0.07 0.08 0.08 0.08 0.07 0.08 0.10 0.14 0.13 0.12 0.11 0.14 0.12 0.11 0.10 0.12 0.13 0.12 0.15 0.12 0.13 0.13 0.10 0.09 0.11 0.11 0.12 0.12 0.18 0.18 0.19 0.20 0.17 0.19 0.20 0.18 0.21 0.13 0.12 0.11 0.08 0.07 0.07 0.07 0.08 0.10 0.12 0.15 0.18 0.19 0.19 0.20 0.19 0.19 0.17 0.15 0.15 0.13 0.15 0.17 0.15 0.14 0.18 0.22 0.24 0.25 0.25 0.26 0.26 0.28 0.28 0.28 0.27 0.24 0.21 0.21 0.20 0.20 0.20
0.09 0.06 0.10 0.12 0.13 0.16 0.15 0.16 0.12 0.09 0.08 0.07 0.06 0.07 0.09 0.07 0.11 0.14 0.15 0.13 0.15 0.14 0.13 0.13 0.15 0.15 0.12 0.12 0.10 0.10 0.10 0.13 0.10 0.10 0.11 0.10 0.12 0.15 0.18 0.19 0.19 0.18 0.20 0.21 0.20 0.19 0.14 0.14 0.13 0.12 0.11 0.10 0.12 0.15 0.18 0.19 0.18 0.16 0.18 0.19 0.19 0.19 0.20 0.19 0.18 0.16 0.14 0.16 0.16 0.17 0.18 0.19 0.20 0.23 0.24 0.25 0.26 0.26 0.25 0.25 0.24 0.22 0.20 0.19 0.19 0.20 0.20 0.19
0.11 0.08 0.07 0.06 0.10 0.12 0.09 0.11 0.10 0.09 0.07 0.09 0.06 0.07 0.06 0.08 0.09 0.10 0.17 0.10 0.15 0.14 0.13 0.13 0.13 0.11 0.11 0.11 0.10 0.10 0.11 0.11 0.13 0.12 0.11 0.11 0.13 0.14 0.18 0.18 0.19 0.20 0.21 0.21 0.21 0.18 0.15 0.13 0.14 0.14 0.15 0.16 0.17 0.18 0.19 0.19 0.17 0.18 0.17 0.17 0.19 0.18 0.19 0.18 0.17 0.16 0.20 0.18 0.15 0.20 0.21 0.20 0.20 0.22 0.23 0.24 0.25 0.24 0.24 0.23 0.21 0.19 0.17 0.18 0.19 0.19 0.19 0.19
0.08 0.09 0.12 0.12 0.07 0.07 0.06 0.07 0.11 0.09 0.10 0.10 0.07 0.10 0.08 0.08 0.08 0.07 0.11 0.15 0.16 0.17 0.11 0.12 0.12 0.12 0.11 0.10 0.10 0.09 0.10 0.10 0.11 0.10 0.13 0.13 0.12 0.14 0.14 0.18 0.17 0.20 0.22 0.20 0.22 0.18 0.15 0.13 0.15 0.16 0.16 0.18 0.19 0.19 0.19 0.19 0.18 0.18 0.18 0.18 0.17 0.19 0.20 0.19 0.20 0.22 0.22 0.19 0.17 0.20 0.21 0.20 0.21 0.21 0.23 0.23 0.23 0.22 0.21 0.20 0.18 0.18 0.18 0.18 0.19 0.18 0.18 0.19
0.12 0.13 0.12 0.14 0.08 0.09 0.09 0.10 0.11 0.10 0.09 0.10 0.09 0.09 0.08 0.08 0.08 0.10 0.10 0.11 0.13 0.12 0.14 0.09 0.10 0.11 0.12 0.13 0.12 0.10 0.11 0.09 0.09 0.11 0.11 0.12 0.12 0.13 0.12 0.15 0.21 0.23 0.21 0.20 0.21 0.21 0.18 0.15 0.17 0.17 0.16 0.17 0.18 0.18 0.18 0.17 0.18 0.18 0.18 0.18 0.20 0.21 0.21 0.22 0.22 0.23 0.23 0.22 0.22 0.21 0.20 0.20 0.21 0.21 0.22 0.22 0.23 0.21 0.20 0.18 0.17 0.17 0.17 0.18 0.18 0.17 0.17 0.19
0.09 0.09 0.09 0.13 0.12 0.11 0.11 0.11 0.11 0.10 0.09 0.11 0.08 0.09 0.09 0.10 0.09 0.11 0.12 0.11 0.09 0.11 0.15 0.11 0.11 0.13 0.13 0.14 0.13 0.11 0.12 0.12 0.11 0.10 0.13 0.13 0.13 0.15 0.14 0.15 0.16 0.22 0.22 0.19 0.20 0.21 0.18 0.15 0.18 0.17 0.14 0.14 0.16 0.17 0.17 0.18 0.18 0.17 0.19 0.21 0.22 0.23 0.23 0.24 0.24 0.24 0.24 0.22 0.21 0.20 0.18 0.17 0.21 0.23 0.21 0.21 0.21 0.20 0.18 0.16 0.16 0.16 0.17 0.18 0.18 0.17 0.18 0.19
0.14 0.16 0.14 0.10 0.08 0.10 0.11 0.11 0.11 0.10 0.09 0.10 0.09 0.10 0.11 0.11 0.11 0.12 0.12 0.15 0.13 0.11 0.13 0.12 0.13 0.14 0.15 0.14 0.14 0.13 0.15 0.15 0.15 0.15 0.16 0.17 0.14 0.18 0.16 0.17 0.20 0.17 0.20 0.19 0.19 0.19 0.19 0.16 0.17 0.16 0.12 0.12 0.15 0.16 0.18 0.19 0.20 0.19 0.20 0.21 0.22 0.22 0.21 0.22 0.22 0.23 0.21 0.18 0.17 0.17 0.16 0.16 0.19 0.20 0.20 0.19 0.18 0.17 0.17 0.17 0.17 0.17 0.18 0.18 0.17 0.18 0.18 0.18
0.19 0.21 0.18 0.13 0.09 0.12 0.10 0.13 0.13 0.10 0.09 0.11 0.12 0.12 0.12 0.12 0.14 0.15 0.12 0.17 0.17 0.18 0.16 0.16 0.16 0.14 0.13 0.14 0.13 0.16 0.18 0.19 0.20 0.22 0.23 0.24 0.24 0.23 0.23 0.22 0.21 0.19 0.18 0.18 0.20 0.17 0.17 0.16 0.14 0.14 0.13 0.14 0.18 0.20 0.20 0.20 0.19 0.18 0.20 0.22 0.22 0.23 0.23 0.23 0.23 0.22 0.20 0.18 0.16 0.15 0.15 0.18 0.18 0.19 0.17 0.15 0.15 0.16 0.18 0.19 0.19 0.19 0.18 0.17 0.17 0.17 0.17 0.17
Wind_Speed
4 4 4 4 4 4 4 4 4 4 5 5 6 6 6 7 7 7 6 7 7 7 7 6 6 5 5 5 5 5 5 4 3 3 4 5 5 6 7 7 7 6 6 6 6 6 6 5 5 5 5 5 5 5 5 5 5 6 7 7 8 8 8 8 8 8 8 8 8 9 10 11 10 9 10 11 12 13 13 15 15 15 17 17 16 16 15 15
4 4 4 4 4 4 4 4 5 5 5 6 6 7 7 7 7 7 7 7 7 7 7 6 6 6 6 6 6 6 6 5 5 4 4 5 6 7 7 7 7 6 6 6 6 6 6 5 5 6 5 5 5 5 5 5 6 7 7 8 9 8 8 8 8 8 9 9 8 9 10 11 11 10 10 12 13 13 15 15 16 17 18 18 17 17 16 16
4 4 4 4 4 4 4 5 5 5 6 6 7 7 7 7 7 7 7 7 6 6 6 7 6 6 6 6 6 7 7 6 6 5 5 6 6 7 7 7 7 6 6 6 6 6 6 5 5 6 5 5 5 5 6 6 7 7 7 9 8 8 8 8 9 8 9 9 9 9 10 12 12 10 11 13 14 14 16 16 16 18 20 19 18 18 18 18
4 4 4 4 4 4 5 5 5 5 6 6 7 7 7 7 6 6 6 6 6 6 6 7 7 7 6 6 6 7 7 7 6 6 6 6 7 7 7 7 7 7 7 6 6 6 6 5 5 5 5 5 5 6 6 6 7 7 8 9 8 8 8 8 10 9 10 10 10 9 10 12 12 12 13 14 15 15 17 18 18 19 21 20 18 19 19 19
5 5 4 4 4 5 5 5 5 5 6 7 7 7 7 6 6 6 6 6 6 6 6 7 7 7 7 6 6 6 7 7 6 7 6 7 8 7 7 7 7 7 7 7 6 6 6 6 5 5 5 5 5 6 6 6 7 7 8 9 8 9 9 8 10 10 10 10 10 10 11 12 12 13 15 15 16 17 17 19 20 20 20 19 19 20 20 20
5 5 5 4 4 5 5 5 5 6 6 7 7 6 6 6 6 6 6 6 6 6 6 7 8 8 7 6 6 6 7 7 7 7 7 8 8 7 6 6 7 7 7 7 7 7 7 6 6 6 6 6 6 7 6 7 8 8 8 8 9 10 9 9 10 10 11 11 11 11 12 12 13 15 16 17 19 19 17 18 20 20 20 19 19 20 21 22
5 5 5 5 5 5 5 5 6 6 7 7 7 6 6 6 6 6 6 6 6 6 7 7 7 7 7 7 7 7 7 7 7 7 7 7 7 6 6 6 6 7 7 7 7 7 7 7 7 6 6 6 7 6 7 7 8 9 8 8 9 10 9 10 11 11 11 12 12 12 13 14 15 16 16 18 22 21 19 19 20 20 20 20 20 21 22 23
5 5 5 5 5 5 5 6 6 6 7 7 7 7 6 6 6 6 6 6 6 6 6 6 6 7 7 7 8 7 7 7 7 7 7 7 6 5 6 6 6 7 7 7 8 8 8 7 7 7 6 6 7 7 7 8 8 8 8 8 9 9 10 11 11 12 12 13 13 13 15 15 16 17 17 20 23 22 20 20 20 20 20 21 22 22 23 23
5 5 5 5 5 5 6 6 6 6 7 7 7 7 7 6 6 6 6 6 6 6 6 5 6 6 7 7 8 8 7 7 7 7 7 7 6 5 5 6 6 6 7 7 8 8 8 8 7 8 7 6 7 7 7 8 8 8 8 8 9 10 11 11 12 12 13 13 13 15 16 15 16 18 20 22 23 22 21 21 21 21 22 22 23 23 23 24
4 4 4 4 5 5 5 6 6 6 7 7 7 7 7 6 6 6 6 7 7 6 6 5 6 6 7 7 7 7 7 7 7 7 6 6 6 6 5 6 6 6 6 7 7 8 8 8 8 8 7 6 6 7 8 9 8 7 7 8 9 10 11 12 12 12 13 14 14 16 17 16 16 18 19 19 19 20 20 22 22 23 24 23 23 24 24 25
3 3 3 4 4 5 5 5 6 6 6 6 6 7 7 6 6 6 7 7 7 7 6 6 6 6 6 6 6 6 6 7 7 6 6 6 6 6 6 6 6 6 6 6 7 7 8 7 7 7 7 7 6 6 8 8 8 7 8 8 10 11 12 12 12 12 13 14 14 17 18 17 15 17 21 20 19 20 20 21 22 23 24 24 24 24 24 25
2 2 2 3 4 4 5 5 6 6 6 6 6 7 7 7 7 7 7 7 7 7 6 6 6 6 6 5 5 5 6 6 6 7 6 6 5 5 5 5 5 6 6 5 6 7 7 7 7 7 7 7 7 7 7 7 8 9 9 11 11 12 13 12 12 12 14 15 14 17 19 17 15 19 22 20 20 21 21 22 22 24 24 24 25 24 25 26
2 2 3 4 4 5 5 6 6 6 6 6 6 7 7 7 7 7 7 7 7 7 7 7 7 7 7 6 5 6 6 6 7 7 6 6 6 5 5 5 5 5 5 5 5 6 6 7 7 6 6 7 7 8 7 8 10 10 11 12 12 13 13 12 12 13 14 15 14 17 19 17 15 20 21 19 20 21 22 23 24 24 24 24 25 25 26 26
2 3 3 4 5 5 6 6 6 6 6 6 6 6 7 7 7 7 7 7 7 8 8 7 7 7 7 6 6 6 7 7 7 7 7 6 6 5 5 4 4 4 4 4 5 6 6 7 6 6 6 7 7 7 8 9 11 11 12 12 12 14 13 12 13 14 14 15 15 16 19 19 17 18 19 19 21 22 22 24 24 25 24 24 25 25 26 26
3 4 4 5 5 6 7 7 7 7 7 6 7 7 7 7 7 7 7 7 7 7 8 7 7 7 6 6 7 7 7 7 7 6 6 6 6 6 5 5 5 4 4 5 5 6 6 6 6 6 7 7 7 8 9 10 11 12 13 13 13 14 14 14 14 15 16 15 15 17 19 21 20 18 18 20 21 22 23 24 25 25 25 25 25 26 27 27
4 5 5 6 6 6 7 7 7 7 7 7 7 8 8 7 7 7 7 6 7 7 7 7 7 7 7 6 7 7 6 6 6 6 6 5 6 6 6 5 5 5 5 5 6 6 6 6 6 7 7 8 9 10 10 11 12 12 13 14 14 15 16 16 14 15 17 17 17 19 21 22 21 17 17 20 22 23 24 25 25 26 26 26 26 26 27 28
5 5 6 6 6 6 7 7 7 7 7 8 8 9 8 7 6 6 6 6 6 6 6 6 6 6 6 6 7 6 6 6 6 6 6 6 6 6 6 6 6 7 6 6 7 7 8 7 8 8 8 9 10 11 12 13 13 12 13 15 15 16 17 17 16 16 17 18 19 20 22 24 23 21 21 21 23 24 25 26 26 26 26 26 27 27 27 28
6 6 6 6 6 7 7 7 7 8 8 8 8 8 8 7 6 6 6 7 6 6 6 6 6 6 6 6 6 6 7 6 6 6 6 6 6 6 6 7 7 8 8 8 8 8 8 8 9 10 10 10 11 12 13 13 13 14 15 16 17 17 17 19 18 17 18 19 21 21 23 25 26 26 25 23 23 26 27 26 26 26 26 26 27 28 28 28
7 6 6 6 7 8 8 8 7 7 8 8 7 6 6 6 5 5 5 5 6 6 6 5 5 6 5 6 6 7 7 7 6 6 6 7 7 7 7 7 8 8 9 9 9 9 9 9 10 11 11 11 12 13 14 14 14 16 16 17 18 18 19 19 18 18 19 21 22 23 24 26 27 28 28 26 24 25 26 26 25 25 25 26 26 27 28 28
7 6 7 7 8 8 8 7 7 7 7 6 5 5 5 5 5 5 4 4 5 5 6 6 6 6 6 6 7 7 7 7 7 6 7 7 8 8 8 8 8 8 9 10 10 9 10 11 12 12 12 12 12 13 14 14 15 16 16 18 19 19 20 19 18 19 20 22 23 23 25 27 28 29 29 27 24 23 25 25 25 25 25 25 26 27 27 27
7 7 8 8 8 8 7 7 7 7 6 5 4 4 4 5 5 5 4 4 5 5 5 5 6 6 6 6 7 7 7 8 7 7 7 8 8 9 9 8 9 9 9 10 11 10 11 13 13 12 11 11 12 13 13 14 15 16 17 18 19 20 21 19 19 19 20 22 24 24 26 28 29 30 28 24 23 24 24 24 26 26 25 25 25 25 25 25
8 8 8 8 9 8 7 7 6 5 5 4 4 3 3 4 4 4 5 5 4 5 5 5 5 6 6 7 7 7 8 8 8 7 7 8 9 9 9 9 10 10 10 11 11 11 12 13 12 11 11 11 12 13 14 15 16 17 17 19 20 20 21 20 19 19 20 23 25 25 27 29 29 28 24 22 23 24 24 24 26 26 25 24 23 23 24 24
8 8 8 9 9 8 7 6 5 5 4 4 4 3 3 4 4 4 5 5 4 4 5 5 6 6 6 7 7 7 7 7 8 7 8 9 9 9 10 10 10 10 11 11 12 13 13 13 12 11 12 12 13 14 15 16 17 18 18 20 21 20 21 21 20 21 22 23 26 27 28 28 25 22 21 21 22 23 24 25 26 25 24 23 22 22 23 24
9 9 9 9 9 8 7 6 5 5 5 4 4 4 4 4 5 5 5 5 5 5 5 5 6 6 6 6 7 7 7 7 8 8 9 9 9 10 10 10 11 11 11 12 12 14 14 13 12 13 14 14 15 15 16 17 18 18 19 20 22 21 21 23 23 24 25 23 24 27 28 24 19 20 22 20 21 24 24 24 24 23 23 22 22 23 23 25
9 10 10 9 9 8 7 5 5 5 5 5 5 5 5 5 6 6 5 5 5 5 5 6 6 6 6 7 7 7 7 7 8 9 9 9 9 10 10 10 12 12 11 12 13 15 14 13 13 13 14 15 16 16 17 18 19 19 19 20 22 21 22 23 24 26 26 22 22 25 26 22 19 24 24 21 23 24 23 22 22 22 21 22 23 23 24 25
10 10 10 9 9 8 6 5 5 5 5 5 6 6 6 6 6 6 5 5 5 4 5 5 5 6 6 7 7 7 7 7 8 9 9 9 10 10 10 11 12 12 12 12 13 14 13 13 14 14 15 15 17 18 17 18 20 21 19 20 20 21 22 24 24 25 24 23 23 24 24 24 24 25 22 22 24 23 22 22 21 21 22 22 23 24 25 26
10 10 10 9 8 8 6 5 5 5 5 5 6 6 6 6 6 6 6 5 4 4 5 5 5 6 6 7 7 7 8 8 8 9 9 9 10 11 11 11 12 12 12 13 14 13 13 13 15 15 16 16 18 19 17 17 20 21 19 20 20 21 23 24 24 25 25 27 26 24 23 25 26 23 20 23 24 22 22 21 21 22 22 23 24 25 26 27
11 10 10 8 8 7 6 6 6 5 5 6 6 6 6 6 6 6 5 4 4 5 5 5 5 6 6 7 7 7 8 8 9 8 9 10 10 11 12 12 12 12 12 14 15 14 14 14 15 15 16 17 18 18 18 18 20 20 19 21 21 22 23 24 25 25 26 27 25 22 21 22 23 21 20 22 22 22 23 22 23 23 23 24 25 26 26 27
10 10 9 8 7 7 6 6 6 6 6 6 6 6 6 6 6 5 4 4 5 5 5 6 5 6 7 7 7 7 8 8 8 9 10 10 10 11 12 12 12 12 13 15 16 15 15 15 16 16 17 18 17 18 18 19 20 19 19 21 21 22 23 23 25 25 24 24 23 21 20 21 23 22 21 22 21 22 24 23 24 25 24 24 25 26 26 27
10 9 9 8 7 7 7 6 6 6 6 6 6 7 7 6 5 5 4 5 5 6 6 6 6 7 8 7 7 7 8 8 9 10 10 10 11 11 11 12 12 12 13 14 15 15 14 15 16 16 17 17 17 17 18 18 19 19 20 22 23 22 23 24 24 23 23 22 21 21 21 22 23 22 22 22 21 23 25 25 25 25 24 25 25 26 27 28
10 9 8 8 7 8 7 6 6 6 6 6 6 7 7 6 5 5 5 5 6 6 6 6 7 8 8 7 8 8 8 9 10 10 10 10 11 11 11 12 12 13 14 14 15 15 14 15 16 16 17 17 17 17 18 18 18 20 21 23 24 23 22 22 21 21 21 21 20 21 22 22 23 24 24 22 21 23 25 25 25 25 25 25 26 27 28 30
9 9 8 8 8 8 7 6 6 6 6 6 6 7 6 6 5 5 6 6 6 6 6 7 8 8 8 8 8 9 9 9 9 10 10 11 11 11 12 13 13 14 15 14 15 15 15 15 15 15 16 16 17 17 17 18 18 20 21 21 23 23 22 22 21 20 21 21 21 22 23 24 26 27 25 24 25 25 24 24 24 24 25 26 27 28 30 32
9 8 8 8 8 7 7 7 7 6 6 7 7 6 6 6 5 5 6 7 7 7 8 8 9 9 9 9 9 9 9 9 9 10 10 11 12 12 12 13 14 15 15 15 16 16 15 14 14 15 15 16 17 18 18 19 19 20 21 21 22 22 22 23 23 22 23 22 22 23 24 25 26 24 22 25 27 24 22 22 23 24 25 26 28 30 32 33
8 8 8 7 7 7 7 7 7 7 7 7 7 6 6 6 6 6 7 8 7 8 8 8 9 9 9 9 9 9 9 9 9 11 11 11 12 12 13 13 14 14 14 15 15 15 15 15 14 15 16 16 17 19 20 20 20 20 20 21 21 20 22 24 23 24 25 25 24 24 24 23 23 21 21 25 24 21 21 22 22 23 24 26 29 31 33 34
8 8 7 7 7 7 8 7 7 7 7 7 6 6 6 7 7 7 7 8 8 8 8 8 9 9 9 8 8 9 9 9 10 11 12 12 12 13 13 13 13 13 14 15 15 15 16 16 15 16 17 18 19 19 20 20 20 19 20 20 21 20 21 23 24 25 26 27 25 23 24 24 24 24 22 22 19 19 21 22 22 23 24 27 30 32 34 34
8 7 7 7 7 8 8 8 8 7 7 6 6 6 6 7 7 7 7 8 8 9 9 9 9 9 9 8 8 9 10 10 11 12 12 12 13 13 12 12 13 14 15 15 15 15 16 16 15 17 18 18 19 19 19 21 20 20 21 21 21 22 23 24 24 24 24 27 25 23 24 25 25 24 19 17 18 20 22 24 24 25 26 28 31 33 34 34
7 7 7 7 8 8 9 8 7 7 6 6 6 6 7 6 7 7 7 8 9 9 10 10 9 9 9 9 9 10 11 11 11 12 12 12 12 12 12 13 14 15 15 16 16 16 18 18 17 18 18 18 19 19 19 21 21 21 21 21 21 22 22 22 23 24 24 26 25 23 24 25 23 21 17 17 20 22 23 25 26 27 29 30 32 34 34 34
7 7 7 7 8 9 8 8 7 6 6 5 6 6 6 6 7 7 8 8 9 9 9 9 9 9 9 10 10 11 12 12 12 12 13 12 12 12 13 14 14 15 15 16 17 17 19 20 18 18 18 18 19 21 21 20 21 22 22 22 22 22 22 21 22 24 25 26 26 23 23 23 21 19 19 20 21 23 26 27 28 30 31 32 34 35 35 36
7 7 7 7 8 8 8 7 6 5 5 5 5 6 6 6 7 7 8 8 9 9 9 9 9 9 9 10 11 11 11 12 12 12 13 12 12 13 14 14 14 14 16 17 18 17 18 19 19 18 19 20 21 21 21 21 20 22 22 22 22 22 23 22 22 22 23 25 26 24 23 22 20 19 20 21 22 25 27 28 29 31 33 34 35 35 36 37
7 7 6 7 8 8 7 5 5 4 5 5 5 5 6 7 7 7 8 8 9 9 9 9 9 10 10 10 11 11 11 12 12 13 13 13 13 13 13 14 15 15 17 18 18 19 19 19 20 19 20 22 22 21 22 22 22 22 22 22 22 21 22 22 22 21 21 23 24 25 25 23 19 20 21 21 23 25 27 30 32 33 34 35 35 35 37 39
6 6 6 7 8 7 5 5 4 4 5 5 6 6 7 7 7 8 8 8 9 9 9 9 9 10 11 11 11 11 12 12 12 13 13 13 14 14 14 16 17 17 17 18 18 19 19 20 21 22 22 23 22 22 23 23 22 22 22 21 21 21 21 22 22 20 21 22 23 24 26 24 21 23 23 22 23 26 29 32 33 34 35 35 35 37 39 41
6 6 6 7 7 5 4 4 4 5 5 6 6 7 7 7 8 8 8 8 9 9 9 10 10 10 11 11 11 12 12 13 13 13 14 14 14 15 15 17 18 18 18 19 19 19 20 21 22 23 23 22 21 21 21 21 20 20 20 20 20 20 20 22 23 22 21 22 22 23 25 25 24 23 22 22 25 28 31 33 34 35 36 36 38 40 41 43
5 5 5 6 6 5 4 4 5 5 6 6 7 7 7 8 8 8 8 9 9 9 9 10 10 10 11 11 12 12 13 13 13 13 14 15 15 16 17 17 18 19 19 19 19 19 20 21 22 23 23 20 19 19 18 18 18 19 20 20 20 21 21 22 23 23 23 22 22 23 24 25 24 21 21 24 28 31 33 34 35 36 37 39 41 42 43 44
5 5 4 5 6 5 4 5 5 6 6 6 7 7 7 8 8 8 9 9 9 9 10 10 10 11 11 12 13 13 13 14 14 14 15 16 16 17 17 18 19 19 19 20 20 20 20 20 21 22 22 19 18 18 17 18 19 20 20 20 20 20 20 21 21 21 23 23 22 24 25 24 22 23 28 30 31 33 35 35 36 37 40 41 43 43 44 46
4 4 4 5 6 5 4 5 6 6 7 7 7 8 8 8 8 9 9 10 10 10 10 11 11 12 12 12 13 13 14 15 15 15 16 17 17 17 18 19 19 20 20 21 21 20 20 19 19 21 21 20 20 19 19 19 19 19 19 19 20 20 20 21 22 21 23 22 21 23 27 28 27 31 35 35 33 35 36 36 38 40 42 43 44 45 47 48
4 4 4 6 6 5 5 6 6 6 7 8 8 8 9 9 9 9 10 10 10 11 11 11 12 12 12 13 14 14 15 15 16 17 17 18 18 18 19 20 19 20 20 20 20 19 19 19 19 20 20 20 21 21 19 20 21 22 21 20 19 20 20 21 22 22 23 24 25 26 29 34 35 35 36 35 35 37 38 39 41 43 44 45 46 47 49 50
4 4 5 6 6 5 6 7 7 7 7 8 9 9 9 10 10 10 10 11 11 11 12 12 12 13 13 14 15 16 16 16 16 17 18 18 19 19 19 19 19 20 20 20 19 18 18 19 19 19 19 20 22 22 20 20 22 23 23 22 20 20 20 21 22 23 24 26 27 27 29 34 36 37 37 36 37 38 39 41 44 45 47 48 48 50 52 52
4 4 5 6 6 6 7 8 8 8 8 9 9 9 10 11 11 11 11 11 11 12 13 12 13 14 15 15 16 17 17 17 17 18 18 19 19 19 19 19 19 19 19 18 18 18 19 19 18 17 19 20 22 22 21 20 21 22 23 25 24 21 20 20 22 24 24 26 29 31 34 36 37 38 38 37 38 40 42 44 46 47 48 49 51 52 53 53
5 5 6 7 7 7 8 9 9 8 9 9 10 10 10 11 11 11 11 12 12 13 13 14 15 15 16 16 17 17 18 18 19 19 18 18 19 18 19 18 17 18 18 18 18 18 18 18 17 17 19 20 21 21 20 20 21 22 23 25 24 21 20 21 23 25 26 28 31 34 37 37 36 37 37 38 40 42 43 45 47 48 50 51 52 54 54 52
6 6 7 7 7 8 8 9 9 9 9 10 10 10 11 11 12 12 12 13 14 13 14 15 16 16 16 17 17 18 18 18 19 19 17 17 18 18 18 18 16 17 18 18 18 18 17 18 17 17 20 20 18 19 20 20 22 24 23 21 21 22 22 22 24 25 26 29 32 34 37 37 35 36 38 40 41 43 45 47 49 50 51 53 54 55 54 52
7 8 8 7 8 8 9 9 9 10 10 10 10 11 11 12 13 14 14 14 15 15 15 16 16 16 16 17 17 19 18 17 18 18 17 17 18 17 17 17 16 16 17 17 17 17 17 18 18 19 21 20 18 20 22 22 22 22 20 20 22 23 24 23 24 25 27 31 34 35 36 36 36 37 40 42 44 46 47 49 51 52 53 55 55 54 52 52
8 8 8 8 8 9 9 9 9 10 10 11 11 12 13 13 14 15 15 15 15 16 16 16 16 16 17 17 17 17 17 17 17 17 17 17 17 16 16 16 16 16 16 16 16 17 18 18 19 20 21 21 20 23 25 24 21 18 18 21 24 25 26 26 27 28 29 32 34 35 36 37 38 40 43 46 48 49 49 51 52 53 55 56 54 52 52 54
Wind_Direction
261 264 266 269 272 275 276 276 279 283 283 283 283 282 282 279 278 277 274 270 264 261 260 262 266 271 277 274 269 269 265 259 259 258 249 250 257 261 260 255 256 256 251 245 238 239 246 250 253 253 252 255 260 257 253 261 262 260 262 265 268 268 268 268 260 265 280 278 266 260 256 260 266 267 271 276 275 279 280 275 275 276 274 279 284 286 282 272
265 268 272 274 275 276 276 275 276 282 285 289 291 289 285 280 276 272 268 267 264 261 258 259 262 268 274 274 269 262 258 255 255 262 258 258 264 265 261 254 255 254 247 244 238 241 248 250 252 251 252 255 260 258 255 268 272 268 270 268 270 274 278 280 272 269 283 282 267 260 259 264 271 269 269 276 276 276 279 277 275 277 275 275 280 281 279 272
267 269 272 275 276 275 274 274 276 281 288 293 295 293 289 284 279 271 266 265 265 263 258 258 260 265 270 276 272 256 250 252 253 263 263 267 272 269 262 255 254 249 243 244 241 244 248 246 248 249 250 254 261 259 261 272 274 273 273 271 275 282 283 285 280 274 284 285 269 262 264 269 275 274 272 278 281 278 277 277 275 275 273 272 276 277 276 273
266 268 273 276 277 274 273 276 279 284 290 294 296 295 291 287 281 273 269 267 265 263 260 259 260 262 264 275 273 251 245 248 251 262 264 274 279 272 263 257 254 246 242 242 241 244 245 245 250 252 250 253 263 264 270 278 274 273 275 278 283 282 282 285 283 279 284 284 272 268 270 272 276 276 275 279 283 281 276 273 273 274 273 272 275 274 274 273
266 268 272 277 278 275 275 277 281 286 289 295 297 296 293 287 281 275 271 269 268 265 264 261 259 260 259 269 269 250 247 248 252 260 264 277 280 271 261 258 255 246 240 240 242 245 246 250 252 255 256 259 266 267 274 282 276 274 279 285 285 282 284 286 285 281 280 281 275 272 273 276 278 276 274 275 280 285 283 279 276 277 278 277 276 274 274 274
269 269 269 275 279 278 279 279 282 284 287 294 296 295 294 288 280 274 270 270 270 268 268 266 261 259 256 263 264 253 251 250 254 259 265 278 277 267 258 257 256 246 241 241 244 248 249 254 254 256 262 264 272 273 277 280 275 277 280 282 283 285 286 284 284 282 279 277 274 274 277 280 279 278 278 274 275 283 290 290 286 284 284 281 279 277 275 274
274 270 268 273 278 281 285 283 283 283 286 292 292 292 293 288 281 274 270 269 269 270 273 270 263 257 253 258 261 255 251 248 253 258 269 278 272 264 255 257 259 248 244 244 246 251 250 254 254 256 262 266 270 275 283 281 277 280 280 277 283 288 286 286 285 282 281 278 278 279 280 280 276 281 287 278 274 279 287 291 291 289 286 282 280 278 276 275
277 272 269 272 280 286 289 287 285 285 287 289 288 289 290 289 282 275 270 267 268 270 274 272 263 256 255 258 257 253 251 250 254 261 272 275 270 268 257 261 264 248 244 246 250 252 250 254 254 255 265 271 269 272 283 280 279 284 280 276 282 289 288 288 286 283 282 281 282 281 280 282 281 287 290 281 278 280 284 287 289 289 287 282 280 278 278 277
277 271 270 275 284 290 290 289 290 290 290 289 287 287 289 290 285 278 272 267 268 270 273 273 267 263 261 261 255 250 251 250 253 264 272 270 266 268 264 266 266 251 247 250 254 254 253 255 254 256 265 270 267 274 283 280 282 286 282 277 282 288 289 289 288 286 284 283 283 281 282 286 288 291 289 283 283 285 286 286 286 286 285 283 281 279 278 278
278 270 271 280 289 293 295 295 296 295 294 292 289 288 289 291 287 280 271 266 267 268 272 275 274 271 264 260 252 246 248 247 253 266 271 268 260 260 267 270 268 258 253 254 257 257 258 259 255 258 264 266 270 281 285 283 285 285 283 284 289 291 291 292 290 288 287 286 285 285 289 291 291 293 290 289 291 291 289 286 286 284 282 281 281 281 280 279
286 275 277 289 295 299 302 302 302 300 298 296 291 287 286 288 287 281 271 265 265 266 269 275 277 271 261 256 249 242 245 245 252 266 267 263 257 255 264 273 273 264 255 256 260 259 260 258 255 261 269 266 270 287 289 285 286 285 282 287 294 295 293 291 290 289 290 290 289 291 293 292 293 291 286 290 295 293 291 288 286 284 282 281 281 282 282 281
314 291 291 298 301 304 305 305 306 304 303 300 294 288 282 284 287 281 273 265 263 265 266 270 274 266 255 253 248 241 243 245 250 259 262 257 252 254 261 272 276 268 259 257 259 259 255 252 255 268 273 264 269 285 286 284 288 288 287 288 292 294 291 289 292 294 293 294 295 296 295 290 287 284 284 291 294 294 293 290 288 285 285 284 282 282 283 282
341 316 307 306 303 304 305 307 307 305 304 303 298 290 283 285 286 279 273 267 264 265 263 267 270 262 252 248 245 243 245 250 253 255 258 253 246 250 258 268 276 272 264 256 254 256 255 255 261 268 269 269 276 282 280 287 290 289 292 293 292 293 294 294 297 299 296 297 298 297 298 298 288 280 286 295 294 294 294 291 289 288 287 286 284 283 283 283
335 323 316 311 307 306 307 308 307 304 302 301 299 294 289 287 286 277 270 265 263 263 260 263 264 256 249 244 244 250 252 255 259 258 256 249 241 244 254 265 274 274 266 256 254 258 259 259 261 263 272 279 278 276 282 290 291 291 292 293 294 295 298 300 299 298 297 299 299 296 296 302 300 288 289 295 293 294 294 292 290 289 288 287 285 284 284 284
333 327 321 316 313 309 307 307 306 305 302 299 298 296 293 289 284 275 267 263 262 262 257 256 259 252 246 245 246 254 258 256 260 258 251 245 242 245 255 263 266 269 267 262 260 262 262 262 266 273 280 280 273 277 287 290 291 294 292 291 294 295 297 299 298 297 299 301 298 295 295 301 306 301 296 296 294 294 293 292 291 289 288 287 286 286 286 287
337 331 325 319 315 312 311 311 310 308 302 298 297 295 294 291 284 273 267 266 262 261 256 251 255 252 249 252 248 251 256 252 254 251 244 247 249 249 255 261 262 264 266 265 263 265 271 272 272 278 279 276 278 283 288 287 289 293 292 293 295 294 298 301 299 300 302 301 295 293 296 302 306 306 302 299 297 295 294 292 290 288 287 286 287 288 288 289
342 335 329 324 321 317 315 315 312 307 301 298 296 293 290 287 283 272 268 267 261 258 256 254 256 252 252 252 244 246 251 250 252 250 246 249 253 253 255 260 265 266 266 268 269 272 278 277 271 276 281 282 285 286 287 288 289 293 293 294 295 294 298 299 300 303 301 298 296 293 294 297 301 303 302 299 297 296 294 292 290 288 288 288 289 289 289 290
347 340 337 334 329 323 318 315 312 308 305 301 296 291 286 282 279 276 271 263 257 255 251 255 256 249 248 246 243 249 252 253 254 251 249 249 252 257 260 264 267 268 267 269 276 279 279 276 272 277 281 281 283 282 284 290 294 296 294 294 297 296 295 296 299 303 301 298 297 296 294 296 299 301 302 300 297 295 293 292 290 290 290 290 290 290 290 290
350 346 342 337 330 326 321 318 316 315 312 307 299 290 284 279 274 275 276 263 254 254 252 256 258 252 250 248 252 255 251 252 253 252 253 252 254 256 263 271 270 272 271 270 279 283 280 277 275 278 279 279 283 283 286 293 297 296 295 295 297 297 296 298 301 304 303 300 297 296 296 298 302 303 304 303 299 296 294 293 293 293 293 292 292 291 290 290
350 347 339 332 328 327 325 322 320 320 318 312 304 296 286 277 269 268 277 270 255 255 259 260 258 256 253 250 258 259 251 249 253 257 260 259 256 255 264 274 273 276 278 277 282 283 281 279 277 280 283 284 287 289 292 295 296 294 295 295 294 295 298 301 303 303 303 300 299 300 299 301 304 304 305 305 303 299 297 296 296 295 295 295 294 292 291 290
347 343 338 333 329 326 325 324 322 320 320 320 315 305 290 280 273 270 275 270 258 258 262 260 254 253 253 254 263 264 253 247 251 261 267 263 258 258 267 276 274 277 282 282 282 283 281 281 281 284 288 289 291 293 294 294 295 294 293 295 296 295 297 302 304 302 302 301 301 304 303 303 304 304 306 307 305 303 302 300 300 299 299 299 296 293 292 292
344 340 338 336 332 328 325 324 326 325 318 320 325 315 298 289 283 282 278 267 261 261 260 259 255 256 258 258 265 265 254 249 253 263 274 270 262 265 271 275 277 280 283 282 281 283 282 283 287 289 289 292 294 294 294 293 293 294 294 295 297 298 299 302 304 303 302 302 303 306 305 304 304 305 309 310 308 307 306 304 302 302 302 300 297 295 295 295
340 340 338 335 333 329 326 323 326 330 318 311 322 321 309 301 292 290 283 271 266 263 261 263 260 262 264 262 266 267 257 255 257 267 281 274 265 270 273 275 279 280 281 282 283 285 286 288 291 290 288 289 293 294 293 293 292 292 295 295 296 301 302 300 303 305 300 301 304 305 305 304 305 309 312 311 310 308 306 304 302 302 302 299 297 296 297 298
337 338 336 334 332 328 326 322 321 326 318 310 318 320 313 305 301 297 286 276 270 264 263 267 264 263 266 267 271 270 259 258 263 272 283 277 267 271 276 278 279 278 282 285 284 283 288 292 290 289 290 291 292 292 291 292 293 293 292 293 296 301 301 298 304 306 301 301 305 306 307 306 307 314 314 311 308 308 308 306 303 302 301 299 297 297 298 299
332 333 332 330 328 325 321 321 321 322 316 312 315 315 311 306 304 300 289 278 270 266 268 267 265 265 268 273 277 270 259 261 268 274 280 279 273 272 276 279 281 282 284 285 285 285 290 292 287 287 291 292 291 292 291 291 294 295 294 295 298 302 301 300 304 306 304 303 306 312 312 307 308 315 316 314 312 311 311 309 307 305 303 299 297 297 299 300
329 329 328 325 324 321 314 315 320 319 316 316 313 311 309 306 304 299 291 278 263 267 278 271 268 271 272 278 283 271 261 264 271 275 279 280 277 274 275 280 285 287 285 285 288 289 291 292 290 290 291 291 291 292 292 291 294 297 298 300 301 301 301 301 304 305 304 304 306 311 308 302 307 314 316 316 314 314 314 312 310 308 304 300 298 300 302 303
327 327 325 322 323 319 309 307 314 315 316 318 313 310 306 302 300 297 290 276 261 271 283 280 278 281 280 281 282 274 268 273 274 275 281 282 280 278 279 282 285 287 286 287 290 291 291 291 290 292 291 290 292 294 293 290 293 297 299 302 302 301 300 302 303 302 303 305 305 305 302 299 305 311 315 314 312 317 319 316 313 311 308 305 304 306 307 309
326 326 325 322 321 319 309 302 308 312 312 313 313 310 305 301 299 295 286 272 273 281 286 288 285 288 293 286 281 276 273 278 277 277 283 285 284 282 282 284 284 288 288 286 289 293 293 289 287 289 291 292 294 299 297 290 293 299 300 301 302 302 301 302 301 301 303 305 305 305 302 300 302 308 314 311 312 319 319 316 316 314 313 311 311 312 313 313
324 324 324 320 317 318 311 302 304 306 306 308 310 311 309 304 298 294 282 270 281 287 286 291 286 294 303 291 283 282 277 279 282 285 287 285 288 287 285 286 286 289 291 289 291 294 296 294 292 291 293 296 299 303 301 296 297 300 300 300 301 301 302 303 301 302 303 302 304 307 304 302 303 307 312 310 312 317 316 314 314 312 312 313 314 314 314 314
322 322 322 318 314 313 307 301 303 303 303 303 306 309 309 306 297 288 280 276 288 290 284 289 291 300 308 297 289 290 282 283 288 289 287 286 291 292 289 289 289 289 292 293 293 295 298 297 296 296 297 300 302 302 302 302 301 300 299 300 300 300 303 303 301 302 302 301 306 308 304 305 306 308 312 311 311 313 311 311 310 310 312 313 313 314 314 313
321 322 322 317 313 311 305 300 301 301 301 300 303 306 305 305 295 280 280 286 293 292 288 294 298 303 310 301 294 296 289 289 294 294 291 289 291 293 291 291 292 292 292 293 293 296 297 296 297 300 300 301 300 300 302 302 302 301 301 303 303 302 302 301 301 302 301 302 307 308 305 304 304 306 311 311 309 310 307 306 307 309 310 312 313 314 314 314
319 319 322 320 312 308 306 300 299 299 297 298 301 303 303 302 291 279 288 296 295 293 294 298 300 303 306 297 292 297 292 290 297 297 295 294 293 295 295 295 296 295 294 296 297 297 297 298 301 302 301 302 299 299 301 302 302 301 302 305 305 305 304 301 302 303 303 305 307 307 307 304 301 304 309 312 312 311 306 304 305 307 308 311 313 314 314 315
315 312 315 319 313 307 305 301 300 298 296 297 297 300 305 299 288 284 292 297 296 299 299 297 299 300 299 295 294 296 290 289 298 297 293 295 295 296 296 297 299 296 296 300 301 301 301 302 303 300 302 304 301 301 303 303 303 302 303 305 305 306 306 303 304 304 303 304 304 305 308 305 304 307 311 313 314 312 307 305 306 307 309 310 312 313 315 316
309 308 307 312 313 311 309 304 302 298 297 297 294 299 302 291 285 289 293 294 296 300 300 300 301 299 297 298 299 296 290 292 299 297 295 296 295 297 298 297 300 299 298 300 302 303 301 301 304 303 304 305 302 304 306 305 304 303 305 305 302 302 302 302 305 305 304 304 302 303 305 304 307 312 311 311 312 310 307 307 307 309 309 311 313 316 317 317
304 306 304 305 309 313 314 309 303 299 296 295 296 298 293 286 287 291 294 297 299 300 300 299 302 301 299 300 299 298 296 297 301 299 298 299 298 300 301 300 302 302 301 301 302 303 299 300 306 306 305 305 304 304 306 304 304 304 305 303 301 301 299 299 302 303 303 304 302 301 302 302 307 311 309 307 306 306 308 311 312 311 311 313 315 317 318 317
301 302 302 305 308 312 315 311 304 300 295 294 296 295 288 286 290 291 296 302 302 303 303 301 304 303 301 300 300 302 300 299 303 303 300 300 301 301 301 303 304 303 304 303 302 303 300 301 305 305 304 306 306 305 305 305 304 303 302 302 302 303 300 298 300 302 302 301 302 303 303 304 309 312 308 301 302 308 313 316 315 313 313 314 315 317 317 316
301 301 302 308 311 312 313 310 304 299 296 295 294 292 289 290 294 295 300 304 302 304 306 304 307 306 301 300 301 303 303 302 303 304 303 302 302 300 300 303 303 303 305 304 302 302 301 301 305 305 305 307 306 304 306 307 305 302 301 303 304 302 301 300 301 303 302 300 302 304 304 306 312 313 304 300 306 310 313 314 313 313 314 314 315 316 315 315
301 301 303 308 311 313 312 309 304 298 298 299 294 291 291 295 300 300 302 304 302 304 304 302 305 306 301 300 302 303 306 306 305 305 305 304 302 301 302 304 303 304 306 304 303 304 302 302 305 306 305 307 305 303 304 306 305 304 302 303 303 300 300 301 301 305 305 303 305 306 305 308 310 308 302 303 310 311 311 312 313 314 314 313 314 314 314 315
302 301 301 308 313 314 312 307 303 298 301 302 296 296 298 299 303 304 302 304 303 303 303 302 304 305 301 301 303 304 306 307 307 306 305 304 303 303 304 305 303 303 306 305 305 305 304 303 304 305 306 307 305 302 302 304 305 304 302 302 303 300 300 300 301 305 305 304 306 307 307 310 312 310 307 307 311 312 313 314 313 312 312 312 313 314 314 315
303 300 299 310 316 315 312 309 308 307 308 305 300 301 303 302 304 304 303 304 304 304 304 303 303 303 302 302 303 305 306 305 305 305 305 304 305 305 306 306 305 304 305 306 306 305 304 302 302 305 306 305 304 304 304 303 303 302 300 301 302 301 302 301 300 302 302 303 307 306 305 311 315 314 312 309 310 313 314 313 312 312 312 313 314 314 315 315
304 303 301 313 319 315 313 319 322 316 309 305 303 303 305 305 305 304 303 302 304 306 306 305 304 304 304 305 304 304 304 305 304 304 303 303 304 307 307 306 307 307 306 306 306 306 305 302 302 304 304 304 306 308 307 306 305 303 301 301 302 302 303 302 301 303 301 300 304 304 304 310 313 312 311 310 310 313 314 313 313 313 313 314 315 315 315 314
308 307 306 318 324 318 315 321 320 314 308 307 308 306 306 307 305 306 304 302 305 307 307 307 306 305 304 305 306 304 303 304 305 304 303 303 306 308 307 307 308 307 307 307 308 308 307 304 302 302 304 307 310 310 309 308 307 306 305 305 305 304 302 301 302 305 302 300 304 304 303 307 312 312 312 310 311 313 314 314 314 315 315 316 316 315 314 313
313 311 311 323 326 318 316 317 314 313 314 313 311 309 309 308 307 308 307 303 306 308 307 306 305 305 306 306 305 304 303 304 304 305 305 305 308 310 309 308 308 307 307 307 308 308 307 305 304 303 306 310 311 309 308 308 307 306 306 306 305 304 305 303 303 305 302 300 302 302 302 308 314 315 310 310 312 314 315 316 316 316 316 316 315 314 313 313
315 313 315 327 328 319 314 316 314 315 316 314 315 314 311 309 308 310 309 306 306 307 306 308 307 306 308 307 306 305 306 306 306 307 308 306 308 312 311 309 308 308 308 308 309 309 306 306 307 308 311 313 311 309 309 309 308 306 307 308 306 307 309 307 305 304 301 298 298 299 302 308 312 311 309 311 314 316 316 317 316 316 316 316 315 314 313 313
316 316 317 328 336 332 319 317 317 316 315 315 316 316 314 311 310 310 310 309 308 306 307 309 308 308 308 307 307 307 307 307 307 309 310 308 308 311 312 310 308 308 309 309 309 309 307 308 308 309 311 312 312 313 313 313 312 310 309 309 308 307 307 306 305 303 301 302 298 296 299 304 307 309 310 312 315 316 316 316 316 316 316 315 314 314 314 314
319 321 321 324 334 339 330 325 321 317 316 314 314 315 314 312 312 310 308 308 309 307 308 309 308 308 309 308 307 307 307 308 309 310 309 307 308 310 311 310 308 308 309 308 309 309 309 309 307 305 305 306 308 313 315 315 312 310 310 309 308 307 307 306 304 301 301 303 300 297 299 303 307 311 312 314 316 316 316 316 316 316 315 315 314 314 314 314
324 321 321 320 325 330 330 329 327 321 317 314 313 314 312 311 312 311 308 308 310 308 308 309 307 306 308 308 308 308 309 309 309 309 308 307 308 309 309 309 309 308 309 309 309 311 310 309 310 308 304 304 308 312 314 312 309 308 309 310 309 308 306 302 299 300 305 306 303 305 305 306 309 313 314 315 316 316 315 315 315 315 315 315 315 315 315 315
328 321 320 318 318 319 319 323 325 322 318 316 313 313 313 312 312 312 310 310 311 308 308 309 307 305 306 309 309 309 310 309 307 308 308 309 309 308 309 310 309 310 311 310 311 312 310 310 314 315 310 308 309 310 310 309 308 308 308 308 308 307 304 301 299 302 306 304 304 308 309 308 310 313 314 316 316 315 314 315 315 315 315 315 315 315 315 315
326 321 318 316 316 315 315 318 320 318 318 318 315 312 312 312 312 312 311 311 311 310 308 308 308 307 307 308 308 308 309 309 308 308 308 309 309 309 310 311 310 312 312 312 313 314 310 310 316 315 312 311 311 311 312 311 310 311 309 308 308 307 303 302 302 304 305 303 304 308 309 308 310 313 314 316 315 314 314 314 315 316 316 316 315 314 314 314
317 315 314 315 317 318 317 317 317 316 318 317 315 315 313 311 312 314 311 309 310 311 308 307 310 311 310 308 306 305 308 309 309 308 308 309 310 310 310 311 312 313 313 313 314 314 311 312 317 315 313 314 315 315 314 312 310 310 311 312 313 311 309 308 308 309 309 307 307 309 309 310 313 315 315 315 315 315 315 315 316 317 317 316 315 314 314 314
315 314 314 315 317 317 318 319 318 317 318 317 316 316 314 312 312 313 312 309 309 309 307 307 310 312 311 309 305 305 309 310 309 309 309 310 311 312 312 312 311 312 313 313 314 314 313 313 316 317 314 315 316 315 313 312 311 310 314 319 319 316 315 313 311 311 311 311 312 312 311 313 315 317 316 315 316 316 316 317 317 317 316 316 314 314 314 315
315 316 316 317 318 317 318 320 320 319 319 318 316 315 314 314 313 312 312 310 309 309 308 308 309 310 309 309 307 309 313 313 312 313 313 312 313 314 314 314 314 313 313 314 315 316 315 314 316 317 313 312 316 317 315 313 311 311 317 321 320 318 316 314 313 312 311 312 313 313 313 315 317 317 317 316 317 317 317 318 318 317 316 315 314 315 316 316